[[{"header":{"parameterUnit":"m.s-1","parameterCategory":1,"la1":30.2992,"la2":30.254,"lo1":-89.0895,"lo2":-89.0443,"dy":0.0025,"dx":0.0025,"nx":19,"ny":19,"refTime":"2026-03-06T03:00:00:Z","depth":0,"parameterNumber":2,"parameterNumberName":"U-component_of_WINDS"},"data":[0,0,0,-4.0631,-4.0633,-4.0721,-4.0721,-4.0836,-4.0837,0,0,0,0,0,0,0,0,0,0,0,-4.061,-4.0611,-4.0631,-4.0634,-4.0721,-4.0721,-4.0836,-4.0837,0,0,0,0,0,0,0,0,0,0,0,-4.0609,-4.061,-4.0612,-4.0634,-4.0721,-4.0721,-4.0836,-4.0768,0,0,0,0,0,0,0,0,0,0,-4.0683,-4.0667,-4.061,-4.0612,-4.0635,-4.0721,-4.0721,-4.0765,-4.0772,-4.0799,0,-4.0826,0,-4.0834,-4.0846,-4.0846,0,0,0,-4.063,-4.0661,-4.0681,-4.0612,-4.0635,-4.072,-4.068,-4.0769,-4.0778,-4.0809,-4.0827,-4.0832,-4.0836,-4.0846,-4.0847,-4.102,-4.1021,0,0,-4.0625,-4.0627,-4.0675,-4.0687,-4.0676,-4.0678,-4.0683,-4.0774,-4.0793,-4.0828,-4.0834,-4.0838,-4.0847,-4.0848,-4.1019,-4.102,0,0,0,-4.0614,-4.0624,-4.0642,-4.0682,-4.0698,-4.068,-4.0686,-4.0789,-4.0795,-4.0835,-4.0839,-4.0848,-4.0849,-4.1018,-4.1019,-4.107,0,0,0,-4.0611,-4.0617,-4.064,-4.0642,-4.0696,-4.0745,-4.0699,-4.0788,-4.0799,-4.0838,-4.0848,-4.0851,-4.1017,-4.1018,-4.1066,-4.1092,0,0,0,-4.0603,-4.0616,-4.0631,-4.0642,-4.068,-4.0743,-4.0754,-4.0791,-4.0801,-4.0846,-4.0851,-4.1016,-4.1018,-4.1063,-4.1086,-4.1137,0,0,0,-4.0594,-4.0673,-4.0631,-4.0722,-4.0679,-4.0776,-4.0754,-4.0825,-4.087,-4.0849,-4.1017,-4.1019,-4.1062,-4.1083,-4.1134,-4.1179,-4.1199,0,0,-4.0694,-4.0685,-4.0738,-4.0704,-4.0808,-4.0762,-4.0874,-4.0911,-4.0913,-4.0983,-4.0988,-4.1067,-4.1086,-4.1137,-4.1313,-4.1328,0,0,0,-4.0771,-4.0808,-4.0836,-4.088,-4.0913,-4.0943,-4.0964,-4.0979,-4.1039,-4.0951,-4.1101,-4.1112,-4.1141,-4.1162,-4.1176,-4.12,-4.103,-4.1029,-4.1029,-4.0913,-4.0914,-4.1001,-4.1013,-4.1056,-4.1079,-4.1113,-4.1136,-4.1122,-4.1158,-4.1177,-4.1285,-4.131,-4.132,-4.1345,-4.1204,-4.1204,-4.1204,-4.1204,-4.1059,-4.1111,-4.1095,-4.1173,-4.1173,-4.1238,-4.1264,-4.1253,-4.1312,-4.1269,-4.1295,-4.1245,-4.1337,-4.1359,-4.1208,-4.1207,-4.1207,-4.1206,-4.1206,-4.1149,-4.1175,-4.1194,-4.1259,-4.131,-4.1319,-4.1378,-4.1376,-4.1373,-4.14,-4.1419,-4.1418,-4.1415,-4.141,-4.141,-4.1411,-4.1411,-4.1411,-4.1412,-4.1235,-4.1255,-4.1306,-4.1351,-4.138,-4.1417,-4.1444,-4.1472,-4.1502,-4.1495,-4.1495,-4.1476,-4.1347,-4.1313,-4.1417,-4.1416,-4.1416,-4.1415,-4.1415,-4.1377,-4.1345,-4.1424,-4.1454,-4.1506,-4.1556,-4.1555,-4.1613,-4.1635,-4.1664,-4.1642,-4.1548,-4.1537,-4.1526,-4.1498,-4.1643,-4.1643,-4.1643,-4.1643,-4.1451,-4.1447,-4.1528,-4.1576,-4.1622,-4.163,-4.1717,-4.174,-4.1757,-4.1771,-4.1751,-4.1714,-4.1704,-4.1699,-4.1684,-4.1657,-4.184,-4.184,-4.1841,-4.1537,-4.1539,-4.1614,-4.1634,-4.1676,-4.1711,-4.1794,-4.1847,-4.1861,-4.1848,-4.1782,-4.1773,-4.1714,-4.1696,-4.1677,-4.1655,-4.1606,0,0]},{"header":{"parameterUnit":"m.s-1","parameterCategory":1,"la1":30.2992,"la2":30.254,"lo1":-89.0895,"lo2":-89.0443,"dy":0.0025,"dx":0.0025,"nx":19,"ny":19,"refTime":"2026-03-06T03:00:00:Z","depth":0,"parameterNumber":3,"parameterNumberName":"V-component_of_WINDS"},"data":[0,0,0,2.3009,2.301,2.3063,2.3063,2.3127,2.3127,0,0,0,0,0,0,0,0,0,0,0,2.2992,2.2992,2.3009,2.301,2.3063,2.3063,2.3127,2.3127,0,0,0,0,0,0,0,0,0,0,0,2.2991,2.2992,2.2992,2.3011,2.3062,2.3063,2.3126,2.3088,0,0,0,0,0,0,0,0,0,0,2.3038,2.3019,2.2992,2.2992,2.3011,2.3062,2.3063,2.3086,2.3091,2.3102,0,2.3111,0,2.312,2.3131,2.3132,0,0,0,2.3012,2.3016,2.3032,2.2992,2.3011,2.3062,2.3039,2.3089,2.3093,2.3107,2.3112,2.3114,2.3121,2.3132,2.3132,2.3195,2.3195,0,0,2.3009,2.2999,2.3029,2.3035,2.3027,2.3038,2.3041,2.3092,2.3096,2.3112,2.3116,2.3122,2.3132,2.3133,2.3195,2.3195,0,0,0,2.3,2.2997,2.3013,2.3032,2.3042,2.3039,2.3043,2.3093,2.3099,2.3117,2.3123,2.3133,2.3133,2.3195,2.3195,2.3198,0,0,0,2.2998,2.2992,2.3011,2.3006,2.3041,2.3068,2.3044,2.3096,2.3102,2.3123,2.3133,2.3134,2.3194,2.3195,2.3198,2.3201,0,0,0,2.2989,2.2991,2.2998,2.3005,2.3027,2.3068,2.3076,2.3097,2.3106,2.3132,2.3134,2.3194,2.3195,2.3197,2.32,2.3217,0,0,0,2.2976,2.2997,2.2998,2.3025,2.3027,2.3069,2.3076,2.3108,2.313,2.3133,2.3194,2.3195,2.3197,2.3199,2.3216,2.3229,2.3234,0,0,2.2997,2.2999,2.3016,2.3018,2.3059,2.3062,2.3103,2.3132,2.3142,2.3177,2.3179,2.3198,2.32,2.3217,2.3261,2.3264,0,0,0,2.302,2.3032,2.3045,2.3067,2.3091,2.3113,2.3137,2.3149,2.3179,2.3158,2.3208,2.321,2.322,2.3227,2.323,2.324,2.3197,2.3197,2.3197,2.3035,2.305,2.3081,2.3103,2.3125,2.3152,2.3172,2.3192,2.3198,2.321,2.322,2.3245,2.3253,2.3255,2.3266,2.3228,2.3228,2.3228,2.3228,2.3069,2.3089,2.3102,2.3136,2.3153,2.3181,2.321,2.3215,2.3244,2.3238,2.3247,2.3239,2.3259,2.3269,2.3228,2.3228,2.3228,2.3228,2.3228,2.308,2.3093,2.3109,2.3146,2.3173,2.3196,2.3226,2.3239,2.3252,2.3261,2.3276,2.3276,2.3278,2.3267,2.3268,2.3268,2.3268,2.3268,2.3268,2.3086,2.3104,2.3128,2.3159,2.3178,2.3204,2.3236,2.3254,2.3279,2.3286,2.3287,2.3294,2.3258,2.3249,2.3269,2.3269,2.3269,2.3269,2.3269,2.3114,2.3112,2.3148,2.3167,2.3208,2.3236,2.3255,2.3293,2.3311,2.3326,2.3333,2.3304,2.3306,2.3304,2.3296,2.3328,2.3328,2.3328,2.3328,2.3124,2.3128,2.3171,2.3202,2.3233,2.3256,2.3299,2.3326,2.3352,2.3365,2.3363,2.3355,2.3352,2.3356,2.3353,2.3346,2.339,2.339,2.339,2.3144,2.3152,2.3185,2.3214,2.3248,2.3278,2.3321,2.3356,2.3385,2.3393,2.3376,2.3373,2.336,2.3355,2.3359,2.3354,2.3342,0,0]}]]